Location: Coll
(42.4728°N, 0.7714°E)
Time: 12:26:07
(UTC+00:00)

Geosat - Pass Details

Date: 23 October 2020
Orbit: 763 x 766 km, 108.0° (Epoch: 01 December)

Event Time Altitude Azimuth Distance (km) Brightness Sun altitude
Rises 04:26:57 0° 160° (SSE) 3,211 7.4 -21.4°
Reaches altitude 10° 04:29:14 10° 163° (SSE) 2,290 6.6 -21.0°
Maximum altitude 04:34:11 65° 245° (WSW) 841 3.9 -20.1°
Enters shadow 04:37:52 18° 324° (NW) 1,796 5.6 -19.4°
